KC2ASA Weather Reports


Display with metric or nautical units.
time (UTC)temp
F
wind
direction
speed
MPH
gust
MPH
rain 1hr
in
rain 24hr
in
rain mn
in
humidity
%
barometer
mb
20260504081552 0 0.0 0.0 0.00 0.00 0.00 1013.5
20260504050005 37 217 0.0 0.0 0.00 0.00 0.00 85 1013.0
20260504044511 37 217 0.0 0.0 0.00 0.00 0.00 85 1013.0
20260504043104 37 217 0.0 0.0 0.00 0.00 0.00 84 1012.9
20260504041557 38 217 0.0 0.0 0.00 0.00 0.00 82 1012.7
20260504040110 38 217 0.0 0.0 0.00 0.00 0.00 81 1012.6
20260504034558 39 217 0.0 0.0 0.00 0.00 0.00 80 1012.6
20260504033052 40 217 0.0 0.0 0.00 0.00 0.00 79 1012.6
20260504031546 40 217 0.0 0.0 0.00 0.00 0.00 77 1012.6
20260504030043 41 217 0.0 0.0 0.00 0.00 0.00 76 1012.5
20260504024540 42 217 0.0 0.0 0.00 0.00 0.00 76 1012.7
20260504023038 43 217 0.0 0.0 0.00 0.00 0.00 72 1012.6
20260504021537 44 217 0.0 0.0 0.00 0.00 0.00 67 1012.6
20260504020035 45 217 0.0 0.0 0.00 0.00 0.00 68 1012.5
20260504014539 46 217 0.0 0.0 0.00 0.00 0.00 66 1012.3
20260504013038 46 217 0.0 0.0 0.00 0.00 0.00 61 1012.3
20260504011534 48 217 0.0 0.0 0.00 0.00 0.00 58 1012.1
20260504010035 49 217 0.0 0.0 0.00 0.00 0.00 55 1011.9
20260504004531 51 217 0.0 0.0 0.00 0.00 0.00 51 1011.7
20260504003034 53 217 0.0 0.0 0.00 0.00 0.00 46 1011.5
20260504001537 54 217 0.0 2.0 0.00 0.00 0.00 42 1011.3
20260504000031 55 224 0.0 3.0 0.00 0.00 0.00 40 1011.1
20260503234529 55 83 0.0 1.0 0.00 0.00 0.00 41 1010.9
20260503233028 56 77 0.0 3.0 0.00 0.00 0.00 39 1010.7
20260503231528 56 194 0.0 2.0 0.00 0.00 0.00 36 1010.6
20260503230027 57 239 0.0 3.0 0.00 0.00 0.00 34 1010.4
20260503224527 57 222 0.0 3.0 0.00 0.00 0.00 33 1010.3
20260503223026 58 74 1.0 5.0 0.00 0.00 0.00 32 1010.2
20260503221525 58 294 1.0 5.0 0.00 0.00 0.00 32 1010.2
20260503220027 58 222 1.0 7.0 0.00 0.00 0.00 30 1010.3
20260503214527 59 232 3.0 7.0 0.00 0.00 0.00 29 1010.1
20260503213022 59 238 1.0 8.0 0.00 0.00 0.00 29 1010.0
20260503211521 59 67 3.0 8.0 0.00 0.00 0.00 29 1010.1
20260503210021 59 121 2.0 8.0 0.00 0.00 0.00 29 1010.2
20260503204522 59 111 1.0 7.0 0.00 0.00 0.00 29 1010.2
20260503203021 59 218 1.0 7.0 0.00 0.00 0.00 31 1010.3
20260503201516 58 224 2.0 6.0 0.00 0.00 0.00 31 1010.4
20260503200015 58 29 2.0 9.0 0.00 0.00 0.00 30 1010.2
20260503194511 57 215 4.0 9.0 0.00 0.00 0.00 31 1010.4
20260503193012 57 253 4.0 13.0 0.00 0.00 0.00 32 1010.6
20260503191526 57 60 2.0 6.0 0.00 0.00 0.00 33 1010.8
20260503190008 57 217 2.0 14.0 0.00 0.00 0.00 35 1010.9
20260503184506 56 186 1.0 6.0 0.00 0.00 0.00 34 1011.0
20260503183005 57 229 1.0 12.0 0.00 0.00 0.00 34 1011.0
20260503181506 56 250 3.0 9.0 0.00 0.00 0.00 35 1011.1
20260503180120 55 266 2.0 8.0 0.00 0.00 0.00 38 1011.2
20260503174556 53 95 4.0 10.0 0.00 0.00 0.00 39 1011.3
20260503173105 53 93 5.0 10.0 0.00 0.00 0.00 39 1011.7
20260503171553 52 284 1.0 9.0 0.00 0.00 0.00 42 1011.8
20260503160104 53 201 2.0 7.0 0.00 0.00 0.00 41 1012.0